CAPE
0 0 0 0 0 0 0 0 0 0 0 0 0 0 0 0 0 0 0 0 0 0
0 0 0 0 0 0 0 0 0 0 0 0 0 0 0 0 0 0 0 0 0 0
0 0 0 0 0 0 0 0 0 0 0 0 0 0 0 0 0 0 0 0 0 0
0 0 0 0 0 0 0 0 0 0 0 0 0 0 0 0 0 0 0 0 0 0
0 0 0 0 0 0 0 0 0 0 0 0 0 0 0 0 0 0 0 0 0 0
0 0 0 0 0 0 0 0 0 0 0 0 0 0 0 0 0 0 0 0 0 0
0 0 0 0 0 0 0 0 0 0 0 0 0 0 0 0 0 0 0 0 0 0
0 0 0 0 0 0 0 0 0 0 0 0 0 0 0 0 0 0 0 0 0 0
0 0 0 0 0 0 0 0 0 0 0 0 0 0 0 0 0 0 0 0 0 0
0 0 0 0 0 0 0 0 0 0 0 0 0 0 0 0 0 0 0 0 0 0
0 0 0 0 0 0 0 0 0 0 0 0 0 0 0 0 0 0 0 0 0 0
0 0 0 0 0 0 0 0 0 0 0 0 0 0 0 0 0 0 0 0 0 0
0 0 0 0 0 0 0 0 0 0 0 0 0 0 0 0 0 0 0 0 0 0
0 0 0 0 0 0 0 0 0 0 0 0 0 0 0 0 0 0 0 0 0 0
CIN
0 0 0 0 0 0 0 0 0 0 0 0 0 0 0 0 0 0 0 0 0 0
0 0 0 0 0 0 0 0 0 0 0 0 0 0 0 0 0 0 0 0 0 0
0 0 0 0 0 0 0 0 0 0 0 0 0 0 0 0 0 0 0 0 0 0
0 0 0 0 0 0 0 0 0 0 0 0 0 0 0 0 0 0 0 0 0 0
0 0 0 0 0 0 0 0 0 0 0 0 0 0 0 0 0 0 0 0 0 0
0 0 0 0 0 0 0 0 0 0 0 0 0 0 0 0 0 0 0 0 0 0
0 0 0 0 0 0 0 0 0 0 0 0 0 0 0 0 0 0 0 0 0 0
0 0 0 0 0 0 0 0 0 0 0 0 0 0 0 0 0 0 0 0 0 0
0 0 0 0 0 0 0 0 0 0 0 0 0 0 0 0 0 0 0 0 0 0
0 0 0 0 0 0 0 0 0 0 0 0 0 0 0 0 0 0 0 0 0 0
0 0 0 0 0 0 0 0 0 0 0 0 0 0 0 0 0 0 0 0 0 0
0 0 0 0 0 0 0 0 0 0 0 0 0 0 0 0 0 0 0 0 0 0
0 0 0 0 0 0 0 0 0 0 0 0 0 0 0 0 0 0 0 0 0 0
0 0 0 0 0 0 0 0 0 0 0 0 0 0 0 0 0 0 0 0 0 0
Wind_Speed
12 9 9 12 10 11 13 13 14 12 12 11 10 9 9 6 5 6 6 7 6 5
12 13 11 12 11 9 9 10 15 14 12 13 12 11 10 8 8 7 6 6 6 6
13 13 11 11 12 11 10 12 14 14 13 11 10 11 10 8 9 10 6 6 8 6
12 11 11 11 11 12 12 12 14 15 15 14 13 10 9 9 10 10 9 6 7 7
12 12 12 12 12 13 15 14 15 15 15 14 13 12 12 12 11 11 11 8 8 8
13 13 15 14 13 13 13 14 14 14 16 15 14 13 11 11 11 11 10 9 9 7
12 12 12 12 12 12 8 9 11 11 14 13 12 11 12 12 11 10 8 9 9 8
8 8 9 11 12 12 20 9 8 10 9 12 13 10 13 13 11 10 8 8 10 8
10 11 12 14 15 15 16 20 20 12 7 9 7 16 17 11 12 11 9 9 8 8
11 12 13 14 15 16 15 15 14 15 14 8 9 20 22 18 9 9 8 8 7 6
12 12 13 14 15 15 14 15 13 13 12 14 12 20 18 20 12 10 8 7 6 8
12 14 15 15 15 14 15 14 11 12 13 12 12 18 19 14 10 9 8 7 6 7
12 13 13 14 14 12 14 14 11 9 9 14 11 18 19 13 8 9 6 6 5 12
11 13 15 14 12 13 14 15 13 11 9 8 9 10 16 14 7 6 6 5 4 3
Wind_Direction
185 187 192 174 183 185 179 177 166 162 158 154 149 144 135 126 120 121 121 114 101 94
185 186 184 181 185 189 198 177 164 160 158 158 150 150 143 140 128 127 119 122 117 104
192 194 184 175 178 186 182 180 172 155 154 151 148 144 143 138 137 131 123 130 118 114
183 187 175 176 176 179 178 180 176 160 152 152 149 149 138 138 136 125 126 114 116 108
173 177 174 174 181 181 180 180 181 164 155 152 150 148 149 143 141 136 128 128 120 119
182 176 178 173 181 176 184 178 172 166 154 150 147 140 142 137 130 127 125 131 117 117
180 187 187 169 168 157 152 172 158 159 135 132 126 123 123 115 111 108 119 112 110 105
166 157 151 149 138 134 114 81 53 96 90 111 115 121 127 123 118 114 122 114 104 108
133 135 137 134 135 129 129 131 133 107 96 90 97 118 122 137 127 138 136 120 117 121
143 142 143 140 136 133 132 129 127 124 127 122 132 153 147 140 134 135 119 121 123 132
146 137 137 137 133 130 130 127 132 126 130 142 156 155 146 140 127 115 115 122 127 112
146 143 143 137 136 132 125 123 121 127 133 137 129 138 138 119 113 118 126 122 117 119
143 139 134 130 126 124 120 113 104 99 116 132 128 144 142 133 133 132 128 119 133 137
139 134 128 118 118 118 116 116 115 118 107 117 119 140 143 135 116 136 130 132 160 159